Regional Weather Roundup
Issued by NWS

Home | Current Version | Previous Version | Text Only | Print | Product List | Glossary Off
Versions: 1 2 3 4 5 6 7 8 9 10 11 12 13 14 15 16 17 18 19 20 21 22 23 24 25 26 27 28 29 30 31 32 33 34 35 36 37 38 39 40 41 42 43 44 45 46 47 48 49 50

523
ASUS43 KFSD 201602
RWRSD

WEATHER ROUNDUP FOR SOUTH DAKOTA
NATIONAL WEATHER SERVICE SIOUX FALLS SD
1000 AM CST MON FEB 20 2017

NOTE: "FAIR" INDICATES FEW OR NO CLOUDS BELOW 12,000 FEET WITH NO
SIGNIFICANT WEATHER AND/OR OBSTRUCTIONS TO VISIBILITY.


SDZ001>005-009-010-012>017-201700-
NORTHWEST AND NORTH CENTRAL SOUTH DAKOTA

CITY           SKY/WX    TMP DP  RH WIND       PRES   REMARKS
BUFFALO          N/A     48  31  51 W28       29.72R
FAITH            N/A     46  40  79 W14       29.75R
MOBRIDGE       LGT RAIN  39  35  86 NW12      29.68R FOG
$$

SDZ012>016-024>037-041>051-057-063-072>074-201700-
SOUTHWEST AND SOUTH CENTRAL SOUTH DAKOTA

CITY           SKY/WX    TMP DP  RH WIND       PRES   REMARKS
RAPID CTY ARPT SUNNY     52  33  48 NW10      29.82R
PIERRE         LGT RAIN  42  40  92 NW21      29.72R FOG
CUSTER         SUNNY     42  26  53 W10       29.85R
ELLSWORTH AFB  SUNNY     51  33  49 NW21      29.81R
PHILIP         MOSUNNY   50  42  74 NW13      29.78R
PINE RIDGE     SUNNY     45  40  82 W10       29.86R
SPEARFISH      FAIR      48  30  49 W14G22    29.84R
WINNER         LGT RAIN  49  42  77 NW24G30   29.75R
$$

SDZ004>011-016>023-039-040-201700-
NORTHEAST SOUTH DAKOTA

CITY           SKY/WX    TMP DP  RH WIND       PRES   REMARKS
ABERDEEN       CLOUDY    50  47  89 SW9       29.61R FOG
WATERTOWN      FOG       50  50 100 S13       29.62R VSB 1/4
SISSETON         N/A     50  50 100 SE10      29.57F
$$

SDZ017-020-022-023-036>040-048>070-201700-
SOUTHEAST SOUTH DAKOTA

CITY           SKY/WX    TMP DP  RH WIND       PRES   REMARKS
SIOUX FALLS    CLOUDY    56  55  97 S13       29.66F FOG
HURON          CLOUDY    53  52  96 S10       29.61R
CHAMBERLAIN    PTSUNNY   49  41  75 NW21      29.72R
MITCHELL       CLOUDY    54  52  93 S9        29.62F FOG
YANKTON        CLOUDY    57  54  88 S17       29.66R
$$

ABBREVIATIONS USED IN REMARKS
   TC - TEMPERATURE IN CELSIUS
  WCI - WIND CHILL INDEX
   HX - HEAT INDEX
  VSB - VISIBILITY





USA.gov is the U.S. government's official web portal to all federal, state and local government web resources and services.